1357084834494,19.6867
1357084894494,19.6384
1357084954494,19.6508
1357085014494,19.7142
1357085074494,19.7107
1357085134494,19.7030
1357085194494,19.7314
1357085254494,19.6493
1357085314494,19.6869
1357085374494,19.6812
1357085434494,19.7060
1357085494494,19.6829
1357085554494,19.7050
1357085614494,19.7514
1357085674494,19.7515
1357085734494,19.6897
1357085794494,19.7301
1357085854494,19.6271
1357085914494,19.7160
1357085974494,19.7952
1357086034494,19.7184
1357086094494,19.7369
1357086154494,19.7806
1357086214494,19.6888
1357086274494,19.7745
1357086334494,19.6954
1357086394494,19.7174
1357086454494,19.7426
1357086514494,19.7283
1357086574494,19.7292
1357086634494,19.7233
1357086694494,19.7579
1357086754494,19.7991
1357086814494,19.7783
1357086874494,19.7442
1357086934494,19.8550
1357086994494,19.7900
1357087054494,19.7599
1357087114494,19.8207
1357087174494,19.7640
1357087234494,19.8045
1357087294494,19.7374
1357087354494,19.7765
1357087414494,19.7579
1357087474494,19.7963
1357087534494,19.8631
1357087594494,19.8416
1357087654494,19.7890
1357087714494,19.8376
1357087774494,19.8248
1357087834494,19.8395
1357087894494,19.8279
1357087954494,19.8523
1357088014494,19.8232
1357088074494,19.8625
1357088134494,19.8235
1357088194494,19.8213
1357088254494,19.8286
1357088314494,19.8471
1357088374494,19.8722
1357088434504,19.8754
1357088494504,19.8739
1357088554504,19.8877
1357088614504,19.9197
1357088674504,19.8867
1357088734504,19.8885
1357088794504,19.8121
1357088854504,19.8332
1357088914504,19.8034
1357088974504,19.8862
1357089034504,19.8201
1357089094504,19.8155
1357089154504,19.8075
1357089214504,19.7493
1357089274504,19.9001
1357089334504,19.8254
1357089394504,19.7558
1357089454504,19.8581
1357089514504,19.8957
1357089574504,19.8829
1357089634504,19.8559
1357089694504,19.9090
1357089754504,19.7986
1357089814504,19.8236
1357089874504,19.8889
1357089934504,19.8780
1357089994504,19.8655
1357090054504,19.8450
1357090114504,19.8745
1357090174504,19.8797
1357090234504,19.8667
1357090294504,19.8311
1357090354504,19.8832
1357090414504,19.8848
1357090474504,19.8587
1357090534504,19.8864
1357090594504,19.9096
1357090654504,19.8040
1357090714504,19.8841
1357090774504,19.9312
1357090834504,19.9528
1357090894504,19.9427
1357090954504,19.9832
1357091014504,19.8791
1357091074504,19.8093
1357091134504,19.8657
1357091194504,19.8232
1357091254504,19.8336
1357091314504,19.8061
1357091374504,19.8440
1357091434504,19.8086
1357091494504,19.8248
1357091554504,19.8267
1357091614504,19.7780
1357091674504,19.7822
1357091734504,19.8423
1357091794504,19.8309
1357091854504,19.7800
1357091914504,19.7395
1357091974504,19.7373
1357092034514,19.8190
1357092094514,19.7427
1357092154514,19.8298
1357092214514,19.8270
1357092274514,19.7719
1357092334514,19.7933
1357092394514,19.7563
1357092454514,19.8097
1357092514514,19.7636
1357092574514,19.7965
1357092634514,19.8045
1357092694514,19.7760
1357092754514,19.8553
1357092814514,19.8162
1357092874514,19.8626
1357092934514,19.8468
1357092994514,19.8665
1357093054514,19.8492
1357093114514,19.8513
1357093174514,19.8584
1357093234514,19.9169
1357093294514,19.9183
1357093354514,19.9150
1357093414514,19.8784
1357093474514,19.8557
1357093534514,19.8338
1357093594514,19.8855
1357093654514,19.8969
1357093714514,19.8312
1357093774514,19.7844
1357093834514,19.8149
1357093894514,19.8339
1357093954514,19.8640
1357094014514,19.7543
1357094074514,19.8825
1357094134514,19.8658
1357094194514,19.7877
1357094254514,19.7853
1357094314514,19.8318
1357094374514,19.8409
1357094434514,19.8093
1357094494514,19.8181
1357094554514,19.8135
1357094614514,19.8866
1357094674514,19.8900
1357094734514,19.8349
1357094794514,19.8342
1357094854514,19.8700
1357094914514,19.8831
1357094974514,19.8846
1357095034514,19.9190
1357095094514,19.9277
1357095154514,19.9326
1357095214514,19.9456
1357095274514,19.9682
1357095334514,19.9515
1357095394514,19.9498
1357095454514,20.0418
1357095514514,19.9708
1357095574514,19.8621
1357095634524,19.9624
1357095694524,19.9082
1357095754524,19.8926
1357095814524,19.9315
1357095874524,19.8604
1357095934524,19.8509
1357095994524,19.8829
1357096054524,19.8868
1357096114524,19.8845
1357096174524,19.8868
1357096234524,19.8540
1357096294524,19.8788
1357096354524,19.8524
1357096414524,19.8848
1357096474524,19.8818
1357096534524,19.9299
1357096594524,19.8797
1357096654524,19.9375
1357096714524,19.8285
1357096774524,19.8935
1357096834524,19.8598
1357096894524,19.8804
1357096954524,19.9633
1357097014524,19.8313
1357097074524,19.9039
1357097134524,19.8735
1357097194524,19.8305
1357097254524,19.9145
1357097314524,19.8799
1357097374524,19.9369
1357097434524,19.9349
1357097494524,19.8442
1357097554524,19.8638
1357097614524,19.9101
1357097674524,19.9033
1357097734524,19.8512
1357097794524,19.8883
1357097854524,19.9030
1357097914524,19.8619
1357097974524,19.8652
1357098034524,19.8596
1357098094524,19.8614
1357098154524,19.8719
1357098214524,19.8723
1357098274524,19.8719
1357098334524,19.9274
1357098394524,19.9108
1357098454524,19.8418
1357098514524,19.8897
1357098574524,19.8804
1357098634524,19.8922
1357098694524,19.8520
1357098754524,19.8685
1357098814524,19.8763
1357098874524,19.9301
1357098934524,19.9302
1357098994524,19.8973
1357099054524,19.9518
1357099114524,19.9334
1357099174524,19.8979
1357099234534,19.9183
1357099294534,19.9375
1357099354534,19.9284
1357099414534,19.9977
1357099474534,19.9582
1357099534534,19.9034
1357099594534,19.9133
1357099654534,19.9204
1357099714534,19.9355
1357099774534,19.9281
1357099834534,19.9172
1357099894534,19.9078
1357099954534,19.9759
1357100014534,19.8859
1357100074534,19.9226
1357100134534,19.9608
1357100194534,19.9267
1357100254534,19.9457
1357100314534,20.0175
1357100374534,20.0035
1357100434534,20.0049
1357100494534,20.0048
1357100554534,19.9365
1357100614534,20.0845
1357100674534,20.0002
1357100734534,20.0282
1357100794534,19.9999
1357100854534,19.9590
1357100914534,19.9652
1357100974534,19.9657
1357101034534,19.9861
1357101094534,19.9909
1357101154534,19.9606
1357101214534,19.9886
1357101274534,19.9652
1357101334534,19.9296
1357101394534,19.9334
1357101454534,19.9849
1357101514534,19.9611
1357101574534,19.9289
1357101634534,19.9230
1357101694534,19.8426
1357101754534,19.8985
1357101814534,19.9274
1357101874534,19.9746
1357101934534,19.9236
1357101994534,19.9864
1357102054534,19.8947
1357102114534,19.9327
1357102174534,19.8914
1357102234534,19.9168
1357102294534,19.9165
1357102354534,19.9071
1357102414534,19.8733
1357102474534,19.9521
1357102534534,19.9104
1357102594534,19.8974
1357102654534,19.9046
1357102714534,19.9355
1357102774534,19.9038
1357102834544,19.9252
1357102894544,19.8746
1357102954544,19.9376
1357103014544,19.8704
1357103074544,19.9607
1357103134544,19.9058
1357103194544,19.9661
1357103254544,19.9439
1357103314544,19.8825
1357103374544,19.9517
1357103434544,19.9881
1357103494544,19.9877
1357103554544,19.9267
1357103614544,19.9430
1357103674544,19.9354
1357103734544,19.8643
1357103794544,19.9506
1357103854544,19.9151
1357103914544,19.9461
1357103974544,19.8992
1357104034544,19.8842
1357104094544,19.9449
1357104154544,19.8991
1357104214544,19.9269
1357104274544,19.9731
1357104334544,19.9379
1357104394544,19.9237
1357104454544,19.8816
1357104514544,20.0484
1357104574544,19.9206
1357104634544,19.8634
1357104694544,19.8650
1357104754544,19.9020
1357104814544,19.8600
1357104874544,19.9118
1357104934544,19.8718
1357104994544,19.9326
1357105054544,19.8805
1357105114544,19.8708
1357105174544,19.8667
1357105234544,19.8398
1357105294544,19.8709
1357105354544,19.8551
1357105414544,19.8647
1357105474544,19.8989
1357105534544,19.8392
1357105594544,19.8883
1357105654544,19.8327
1357105714544,19.8097
1357105774544,19.8466
1357105834544,19.8921
1357105894544,19.8327
1357105954544,19.8325
1357106014544,19.7792
1357106074544,19.8179
1357106134544,19.8308
1357106194544,19.8922
1357106254544,19.8292
1357106314544,19.8965
1357106374544,19.8106
1357106434555,19.8564
1357106494555,19.8594
1357106554555,19.8690
1357106614555,19.8768
1357106674555,19.8604
1357106734555,19.7904
1357106794555,19.9268
1357106854555,19.8338
1357106914555,19.8363
1357106974555,19.7709
1357107034555,19.8250
1357107094555,19.8597
1357107154555,19.8789
1357107214555,19.8628
1357107274555,19.8164
1357107334555,19.7965
1357107394555,19.8556
1357107454555,19.9262
1357107514555,19.8741
1357107574555,19.8205
1357107634555,19.8627
1357107694555,19.8620
1357107754555,19.8355
1357107814555,19.8258
1357107874555,19.8472
1357107934555,19.8709
1357107994555,19.8635
1357108054555,19.8468
1357108114555,19.8513
1357108174555,19.8923
1357108234555,19.8335
1357108294555,19.8166
1357108354555,19.8237
1357108414555,19.8263
1357108474555,19.8768
1357108534555,19.8378
1357108594555,19.8764
1357108654555,19.8417
1357108714555,19.8955
1357108774555,19.8784
1357108834555,19.9262
1357108894555,19.8481
1357108954555,19.8204
1357109014555,19.8978
1357109074555,19.8708
1357109134555,19.8824
1357109194555,19.8174
1357109254555,19.7971
1357109314555,19.8686
1357109374555,19.6302
1357109434555,19.9024
1357109494555,19.8790
1357109554555,19.8740
1357109614555,19.9013
1357109674555,19.8549
1357109734555,19.8637
1357109794555,19.8755
1357109854555,19.8236
1357109914555,19.8479
1357109974555,19.8479
1357110034566,19.8578
1357110094566,19.8490
1357110154566,19.8716
1357110214566,19.8607
1357110274566,19.8589
1357110334566,19.8172
1357110394566,19.8894
1357110454566,19.8795
1357110514566,19.8473
1357110574566,19.8759
1357110634566,19.8582
1357110694566,19.9496
1357110754566,19.8416
1357110814566,19.8533
1357110874566,19.8225
1357110934566,19.8774
1357110994566,19.8342
1357111054566,19.8420
1357111114566,19.8752
1357111174566,19.8703
1357111234566,19.8363
1357111294566,19.9013
1357111354566,19.9496
1357111414566,19.8576
1357111474566,19.8981
1357111534566,19.8965
1357111594566,19.9114
1357111654566,19.9396
1357111714566,19.8827
1357111774566,19.9462
1357111834566,19.8871
1357111894566,20.0094
1357111954566,19.9342
1357112014566,19.9330
1357112074566,19.9222
1357112134566,19.9297
1357112194566,19.9234
1357112254566,19.9712
1357112314566,19.9807
1357112374566,19.9774
1357112434566,19.9960
1357112494566,20.0451
1357112554566,19.9307
1357112614566,19.9869
1357112674566,19.9318
1357112734566,20.0018
1357112794566,19.9342
1357112854566,19.8978
1357112914566,19.9684
1357112974566,19.9280
1357113034566,19.9457
1357113094566,19.8956
1357113154566,19.8962
1357113214566,19.9199
1357113274566,19.9289
1357113334566,19.9113
1357113394566,19.9447
1357113454566,19.9175
1357113514566,19.9853
1357113574566,19.8975
1357113634577,19.9255
1357113694577,19.9527
1357113754577,19.9109
1357113814577,19.9347
1357113874577,20.0407
1357113934577,19.9924
1357113994577,19.9671
1357114054577,20.0056
1357114114577,19.9304
1357114174577,19.9207
1357114234577,19.9396
1357114294577,19.9183
1357114354577,19.9236
1357114414577,19.9399
1357114474577,19.9549
1357114534577,19.9462
1357114594577,19.9040
1357114654577,19.9348
1357114714577,19.8911
1357114774577,19.8861
1357114834577,19.9012
1357114894577,19.9425
1357114954577,19.8851
1357115014577,19.8707
1357115074577,19.8986
1357115134577,19.8780
1357115194577,19.9552
1357115254577,19.8963
1357115314577,19.9362
1357115374577,19.9602
1357115434577,19.9942
1357115494577,19.9439
1357115554577,19.9676
1357115614577,19.9521
1357115674577,19.9643
1357115734577,19.9396
1357115794577,19.9155
1357115854577,19.8884
1357115914577,19.8534
1357115974577,19.9037
1357116034577,19.9401
1357116094577,19.8932
1357116154577,19.9257
1357116214577,19.8891
1357116274577,19.9417
1357116334577,19.8829
1357116394577,19.9002
1357116454577,19.9521
1357116514577,19.9322
1357116574577,19.8699
1357116634577,19.9070
1357116694577,19.9512
1357116754577,19.9446
1357116814577,19.8947
1357116874577,19.9145
1357116934577,19.9258
1357116994577,19.9656
1357117054577,19.8881
1357117114577,19.8742
1357117174577,19.8419
1357117234588,19.9386
1357117294588,19.9062
1357117354588,19.8564
1357117414588,19.9219
1357117474588,19.8815
1357117534588,19.9081
1357117594588,19.8867
1357117654588,19.9319
1357117714588,19.8961
1357117774588,19.8919
1357117834588,19.9003
1357117894588,19.9175
1357117954588,19.8769
1357118014588,19.9879
1357118074588,19.8815
1357118134588,19.8337
1357118194588,19.8995
1357118254588,19.8842
1357118314588,19.9041
1357118374588,19.8118
1357118434588,19.9385
1357118494588,19.8904
1357118554588,19.8602
1357118614588,19.8546
1357118674588,19.8828
1357118734588,19.8687
1357118794588,19.8785
1357118854588,19.8924
1357118914588,19.8760
1357118974588,19.9252
1357119034588,19.8785
1357119094588,19.9302
1357119154588,19.8733
1357119214588,19.9200
1357119274588,19.9113
1357119334588,19.8952
1357119394588,19.9475
1357119454588,19.9156
1357119514588,19.8847
1357119574588,19.8745
1357119634588,19.8400
1357119694588,19.8858
1357119754588,19.8624
1357119814588,19.8890
1357119874588,19.8923
1357119934588,19.8442
1357119994588,19.8629
1357120054588,19.8694
1357120114588,19.8507
1357120174588,19.9296
1357120234588,19.8393
1357120294588,19.8818
1357120354588,19.8887
1357120414588,19.8809
1357120474588,19.8734
1357120534588,19.8425
1357120594588,19.8620
1357120654588,19.8664
1357120714588,19.8746
1357120774588,19.8711
1357120834600,19.9177
1357120894600,19.9179
1357120954600,19.8487
1357121014600,19.9205
1357121074600,19.8345
1357121134600,19.8807
1357121194600,19.9185
1357121254600,19.9145
1357121314600,19.8318
1357121374600,19.8685
1357121434600,19.8505
1357121494600,19.9047
1357121554600,19.9031
1357121614600,19.8113
1357121674600,19.8746
1357121734600,19.8228
1357121794600,19.8414
1357121854600,19.8581
1357121914600,19.8185
1357121974600,19.8334
1357122034600,19.8070
1357122094600,19.8597
1357122154600,19.8579
1357122214600,19.8375
1357122274600,19.8429
1357122334600,19.8484
1357122394600,19.8079
1357122454600,19.8194
1357122514600,19.8403
1357122574600,19.8542
1357122634600,19.8380
1357122694600,19.8212
1357122754600,19.8594
1357122814600,19.8448
1357122874600,19.8760
1357122934600,19.8535
1357122994600,19.8499
1357123054600,19.8776
1357123114600,19.9087
1357123174600,19.9438
1357123234600,19.8766
1357123294600,19.8558
1357123354600,19.9070
1357123414600,19.8932
1357123474600,19.8599
1357123534600,19.8787
1357123594600,19.9338
1357123654600,19.8736
1357123714600,19.9224
1357123774600,19.9033
1357123834600,19.8769
1357123894600,19.8825
1357123954600,19.9219
1357124014600,19.8721
1357124074600,19.8846
1357124134600,19.9219
1357124194600,19.8731
1357124254600,19.8850
1357124314600,19.8639
1357124374600,19.8938
1357124434611,19.8669
1357124494611,19.9114
1357124554611,19.8365
1357124614611,19.8945
1357124674611,19.9206
1357124734611,19.9507
1357124794611,19.9697
1357124854611,19.9502
1357124914611,19.9575
1357124974611,19.9151
1357125034611,19.9774
1357125094611,19.9819
1357125154611,19.9650
1357125214611,19.9185
1357125274611,19.9898
1357125334611,20.0365
1357125394611,19.8898
1357125454611,20.0166
1357125514611,20.0073
1357125574611,19.9798
1357125634611,19.9824
1357125694611,19.9912
1357125754611,19.9538
1357125814611,19.9687
1357125874611,19.9439
1357125934611,19.9843
1357125994611,19.9565
1357126054611,19.9727
1357126114611,20.0150
1357126174611,19.9859
1357126234611,20.0226
1357126294611,19.9697
1357126354611,19.9678
1357126414611,19.9354
1357126474611,19.8784
1357126534611,19.9708
1357126594611,19.9527
1357126654611,19.9752
1357126714611,19.9636
1357126774611,19.9640
1357126834611,20.0074
1357126894611,19.9503
1357126954611,19.9832
1357127014611,19.9384
1357127074611,19.9434
1357127134611,19.9701
1357127194611,19.9768
1357127254611,19.9593
1357127314611,19.9775
1357127374611,20.0268
1357127434611,19.9821
1357127494611,19.9399
1357127554611,19.9338
1357127614611,19.9803
1357127674611,19.9283
1357127734611,19.9928
1357127794611,20.0123
1357127854611,19.9404
1357127914611,19.9570
1357127974611,20.0211
1357128034623,20.0266
1357128094623,19.9985
1357128154623,20.0265
1357128214623,20.0315
1357128274623,19.9868
1357128334623,20.0975
1357128394623,20.0174
1357128454623,20.0374
1357128514623,19.9858
1357128574623,20.0239
1357128634623,20.0287
1357128694623,19.9709
1357128754623,19.9560
1357128814623,19.9963
1357128874623,19.9576
1357128934623,20.0450
1357128994623,19.9882
1357129054623,20.0733
1357129114623,20.0849
1357129174623,20.0681
1357129234623,20.0359
1357129294623,20.0456
1357129354623,20.0497
1357129414623,20.0048
1357129474623,20.0526
1357129534623,19.9585
1357129594623,20.0899
1357129654623,20.1015
1357129714623,20.0121
1357129774623,20.0092
1357129834623,20.0651
1357129894623,20.0437
1357129954623,20.0313
1357130014623,20.0001
1357130074623,19.9573
1357130134623,20.0303
1357130194623,19.9538
1357130254623,19.9895
1357130314623,20.0174
1357130374623,20.0469
1357130434623,19.9676
1357130494623,19.9924
1357130554623,20.0417
1357130614623,19.9906
1357130674623,19.9959
1357130734623,20.0047
1357130794623,19.9989
1357130854623,20.0002
1357130914623,20.0414
1357130974623,20.0414
1357131034623,20.1165
1357131094623,20.0949
1357131154623,20.0918
1357131214623,20.0958
1357131274623,19.9541
1357131334623,20.0793
1357131394623,20.0392
1357131454623,20.1063
1357131514623,20.1135
1357131574623,20.0624
1357131634634,20.1330
1357131694634,20.0428
1357131754634,20.1386
1357131814634,20.0769
1357131874634,20.0615
1357131934634,20.0940
1357131994634,20.0991
1357132054634,20.1158
1357132114634,20.0512
1357132174634,20.0471
1357132234634,20.0747
1357132294634,20.0635
1357132354634,20.0544
1357132414634,20.1518
1357132474634,20.0223
1357132534634,20.0925
1357132594634,20.0373
1357132654634,20.0703
1357132714634,19.9632
1357132774634,20.0088
1357132834634,20.0070
1357132894634,20.0481
1357132954634,20.0720
1357133014634,20.0861
1357133074634,20.0205
1357133134634,20.0902
1357133194634,20.1148
1357133254634,20.1163
1357133314634,20.1099
1357133374634,20.1081
1357133434634,20.0778
1357133494634,20.1009
1357133554634,20.0458
1357133614634,20.0168
1357133674634,20.0533
1357133734634,20.1027
1357133794634,20.0769
1357133854634,20.0795
1357133914634,20.0472
1357133974634,20.0713
1357134034634,20.0798
1357134094634,20.0633
1357134154634,20.0672
1357134214634,20.0402
1357134274634,20.0380
1357134334634,20.0564
1357134394634,19.9306
1357134454634,20.0890
1357134514634,20.1439
1357134574634,20.0792
1357134634634,20.0280
1357134694634,20.0580
1357134754634,20.0580
1357134814634,20.0203
1357134874634,20.0827
1357134934634,20.0490
1357134994634,20.0019
1357135054634,20.0803
1357135114634,20.0927
1357135174634,20.0221
1357135234646,20.0427
1357135294646,20.0299
1357135354646,20.0455
1357135414646,20.0344
1357135474646,20.0543
1357135534646,20.0292
1357135594646,20.0777
1357135654646,20.0282
1357135714646,20.0172
1357135774646,20.0714
1357135834646,20.0671
1357135894646,20.1180
1357135954646,19.9995
1357136014646,20.0225
1357136074646,20.0329
1357136134646,19.9681
1357136194646,20.0596
1357136254646,20.0320
1357136314646,20.0481
1357136374646,20.0009
1357136434646,20.0859
1357136494646,20.0314
1357136554646,20.0125
1357136614646,20.0092
1357136674646,20.0706
1357136734646,20.0162
1357136794646,20.0233
1357136854646,20.0502
1357136914646,20.0710
1357136974646,19.9907
1357137034646,20.0448
1357137094646,20.0985
1357137154646,20.0837
1357137214646,20.0129
1357137274646,20.0256
1357137334646,20.0412
1357137394646,20.0672
1357137454646,20.0754
1357137514646,20.0890
1357137574646,20.0022
1357137634646,20.0464
1357137694646,20.0311
1357137754646,20.0790
1357137814646,20.0244
1357137874646,20.0034
1357137934646,20.0274
1357137994646,20.0245
1357138054646,20.0553
1357138114646,20.0184
1357138174646,20.0869
1357138234646,20.0102
1357138294646,20.0056
1357138354646,20.0219
1357138414646,20.0659
1357138474646,20.0341
1357138534646,20.0172
1357138594646,20.0671
1357138654646,20.0277
1357138714646,19.9818
1357138774646,20.0295
1357138834657,19.9999
1357138894657,20.0065
1357138954657,20.0379
1357139014657,20.0633
1357139074657,20.0564
1357139134657,20.0005
1357139194657,20.0269
1357139254657,20.0486
1357139314657,20.0518
1357139374657,20.0110
1357139434657,20.0368
1357139494657,20.0843
1357139554657,20.0741
1357139614657,20.0512
1357139674657,20.0746
1357139734657,20.1206
1357139794657,20.0806
1357139854657,20.0650
1357139914657,20.0589
1357139974657,20.0762
1357140034657,20.0717
1357140094657,20.1172
1357140154657,20.0373
1357140214657,20.0172
1357140274657,20.0753
1357140334657,20.0222
1357140394657,20.0315
1357140454657,19.9866
1357140514657,20.0792
1357140574657,20.0578
1357140634657,20.0686
1357140694657,20.0804
1357140754657,20.0056
1357140814657,20.0549
1357140874657,20.0251
1357140934657,20.0110
1357140994657,19.9997
1357141054657,20.0264
1357141114657,19.9445
1357141174657,19.9308
1357141234657,19.9323
1357141294657,19.9881
1357141354657,19.9767
1357141414657,20.0135
1357141474657,20.0951
1357141534657,19.9998
1357141594657,20.0213
1357141654657,20.1096
1357141714657,19.9790
1357141774657,20.0378
1357141834657,19.9995
1357141894657,20.0543
1357141954657,20.0158
1357142014657,20.0462
1357142074657,20.0577
1357142134657,20.0247
1357142194657,20.0157
1357142254657,20.0495
1357142314657,20.0195
1357142374657,20.0965
1357142434668,20.0782
1357142494668,20.0540
1357142554668,20.0468
1357142614668,20.0953
1357142674668,20.0027
1357142734668,20.0388
1357142794668,20.0288
1357142854668,20.0612
1357142914668,20.0225
1357142974668,20.0679
1357143034668,20.1055
1357143094668,20.1171
1357143154668,20.0878
1357143214668,20.0684
1357143274668,20.0640
1357143334668,20.2417
1357143394668,20.0619
1357143454668,20.0784
1357143514668,20.0926
1357143574668,20.0631
1357143634668,20.1321
1357143694668,20.0892
1357143754668,20.1232
1357143814668,20.0874
1357143874668,20.1546
1357143934668,20.1157
1357143994668,20.0670
1357144054668,20.0631
1357144114668,20.0473
1357144174668,20.0585
1357144234668,20.0407
1357144294668,20.0724
1357144354668,20.0774
1357144414668,20.0808
1357144474668,20.0653
1357144534668,20.0470
1357144594668,20.0511
1357144654668,20.1934
1357144714668,20.0201
1357144774668,20.0610
1357144834668,20.0131
1357144894668,20.0550
1357144954668,20.0251
1357145014668,20.0952
1357145074668,20.0213
1357145134668,20.0235
1357145194668,20.0439
1357145254668,20.0329
1357145314668,20.0306
1357145374668,20.1021
1357145434668,20.0516
1357145494668,20.1128
1357145554668,20.1237
1357145614668,20.1320
1357145674668,20.0950
1357145734668,20.0719
1357145794668,20.0968
1357145854668,20.1169
1357145914668,20.0621
1357145974668,20.1493
1357146034680,20.1218
1357146094680,20.1067
1357146154680,20.1103
1357146214680,20.0745
1357146274680,20.0588
1357146334680,20.1147
1357146394680,20.1125
1357146454680,20.0881
1357146514680,20.0617
1357146574680,20.0784
1357146634680,20.1061
1357146694680,19.9994
1357147234680,20.0707
1357147294680,20.0309
1357147354680,20.1041
1357147414680,20.0956
1357147474680,20.1325
1357147534680,20.0920
1357147594680,20.0134
1357147654680,20.0684
1357147714680,20.0347
1357147774680,20.0271
1357147834680,20.0584
1357147894680,20.0168
1357147954680,20.0378
1357148014680,20.0977
1357148074680,20.0916
1357148134680,20.0955
1357148194680,20.1860
1357148254680,20.1472
1357148314680,20.1151
1357148374680,20.1181
1357148434680,20.1055
1357148494680,20.1077
1357148554680,20.0605
1357148614680,20.1134
1357148674680,20.1318
1357148734680,20.1009
1357148794680,20.0452
1357148854680,20.0739
1357148914680,20.0216
1357148974680,20.1036
1357149034680,20.0284
1357149094680,20.0145
1357149154680,20.0148
1357149214680,20.0667
1357149274680,20.0615
1357149334680,20.0540
1357149394680,20.0838
1357149454680,20.1019
1357149514680,20.1004
1357149574680,20.1851
1357149634691,20.0797
1357149694691,20.0633
1357149754691,20.1191
1357149814691,20.0513
1357149874691,20.0958
1357149934691,20.1465
1357149994691,20.1145
1357150054691,20.1203
1357150114691,20.1784
1357150174691,20.1203
1357150234691,20.1268
1357150294691,20.1466
1357150354691,20.1012
1357150414691,20.1172
1357150474691,20.1276
1357150534691,20.0593
1357150594691,20.1262
1357150654691,20.1946